PIMOHWEATHER Station Historical Data
Daily Summary for July 09, 2020 Units:  Metric    English   Both
Daily Weekly Monthly Yearly
  High: Low: Average:
Temperature: 35.0 °C 26.0 °C 29.5 °C
Dew Point: 29.0 °C 24.0 °C 26 °C
Humidity: 90% 67% 82%
Wind Speed: 28km/h 0km/h 6.1km/h
Wind Gust: 36km/h - -
Wind- - South
Pressure: 1010.4 hPa 1006.3 hPa -
Precipitation: 5.41 mm    
 
 
Tabular Data for July 09, 2020
Time Temperature Dew Point Pressure Wind Wind Speed Wind Gust Humidity Rainfall Rate (Hourly) solar
00:04 28.0 °C 25.0 °C 1010.2 hPa North 10 km/h 12 km/h 85% 0.00 mm 0.00 W/m2
00:09 28.0 °C 25.0 °C 1010.2 hPa North 15 km/h 20 km/h 84% 0.00 mm 0.00 W/m2
00:14 28.0 °C 25.0 °C 1009.8 hPa North 13 km/h 16 km/h 84% 0.00 mm 0.00 W/m2
00:19 28.0 °C 25.0 °C 1010.2 hPa North 9 km/h 12 km/h 84% 0.00 mm 0.00 W/m2
00:24 28.0 °C 25.0 °C 1009.8 hPa North 13 km/h 16 km/h 85% 0.00 mm 0.00 W/m2
00:29 27.0 °C 25.0 °C 1009.8 hPa North 10 km/h 16 km/h 85% 0.00 mm 0.00 W/m2
00:34 27.0 °C 25.0 °C 1009.5 hPa NNE 11 km/h 16 km/h 85% 0.00 mm 0.00 W/m2
00:39 27.0 °C 25.0 °C 1009.5 hPa NNE 11 km/h 12 km/h 85% 0.00 mm 0.00 W/m2
00:44 27.0 °C 25.0 °C 1009.5 hPa North 6 km/h 8 km/h 85% 0.00 mm 0.00 W/m2
00:49 27.0 °C 25.0 °C 1009.5 hPa North 6 km/h 8 km/h 85% 0.00 mm 0.00 W/m2
00:54 27.0 °C 25.0 °C 1009.5 hPa North 6 km/h 8 km/h 86% 0.00 mm 0.00 W/m2
00:59 27.0 °C 25.0 °C 1009.5 hPa NNW 4 km/h 4 km/h 86% 0.00 mm 0.00 W/m2
01:04 27.0 °C 25.0 °C 1009.1 hPa NNW 4 km/h 4 km/h 86% 0.00 mm 0.00 W/m2
01:09 27.0 °C 25.0 °C 1009.1 hPa NNW 4 km/h 4 km/h 86% 0.00 mm 0.00 W/m2
01:14 27.0 °C 25.0 °C 1009.5 hPa NNW 4 km/h 4 km/h 86% 0.00 mm 0.00 W/m2
01:19 27.0 °C 25.0 °C 1009.1 hPa WNW 6 km/h 8 km/h 87% 0.00 mm 0.00 W/m2
01:24 27.0 °C 25.0 °C 1009.1 hPa WNW 3 km/h 4 km/h 87% 0.00 mm 0.00 W/m2
01:29 27.0 °C 25.0 °C 1009.1 hPa WNW 3 km/h 4 km/h 87% 0.00 mm 0.00 W/m2
01:34 27.0 °C 25.0 °C 1009.5 hPa Calm   4 km/h 87% 0.00 mm 0.00 W/m2
01:39 27.0 °C 25.0 °C 1009.1 hPa North 3 km/h 4 km/h 87% 0.00 mm 0.00 W/m2
01:44 27.0 °C 25.0 °C 1009.1 hPa North 4 km/h 8 km/h 87% 0.00 mm 0.00 W/m2
01:49 27.0 °C 25.0 °C 1009.1 hPa NNW 4 km/h 4 km/h 87% 0.00 mm 0.00 W/m2
01:54 27.0 °C 25.0 °C 1009.1 hPa North 7 km/h 8 km/h 87% 0.00 mm 0.00 W/m2
01:59 27.0 °C 25.0 °C 1009.1 hPa North 5 km/h 8 km/h 88% 0.00 mm 0.00 W/m2
02:04 27.0 °C 25.0 °C 1009.1 hPa North 8 km/h 12 km/h 88% 0.00 mm 0.00 W/m2
02:09 27.0 °C 25.0 °C 1009.1 hPa NNE 4 km/h 4 km/h 88% 0.00 mm 0.00 W/m2
02:14 27.0 °C 25.0 °C 1009.1 hPa NNE 5 km/h 8 km/h 89% 0.00 mm 0.00 W/m2
02:19 27.0 °C 25.0 °C 1008.8 hPa North 4 km/h 4 km/h 89% 0.00 mm 0.00 W/m2
02:24 27.0 °C 25.0 °C 1008.8 hPa North 5 km/h 8 km/h 89% 0.00 mm 0.00 W/m2
02:29 27.0 °C 25.0 °C 1008.8 hPa North 1 km/h 4 km/h 89% 0.00 mm 0.00 W/m2
02:34 27.0 °C 25.0 °C 1008.8 hPa NNE 3 km/h 4 km/h 89% 0.00 mm 0.00 W/m2
02:39 27.0 °C 25.0 °C 1008.8 hPa North 4 km/h 4 km/h 89% 0.00 mm 0.00 W/m2
02:44 27.0 °C 25.0 °C 1008.8 hPa North 1 km/h 4 km/h 89% 0.00 mm 0.00 W/m2
02:49 27.0 °C 25.0 °C 1008.8 hPa North 3 km/h 4 km/h 89% 0.00 mm 0.00 W/m2
02:54 27.0 °C 25.0 °C 1008.8 hPa Calm     89% 0.00 mm 0.00 W/m2
02:59 27.0 °C 25.0 °C 1008.8 hPa Calm     90% 0.00 mm 0.00 W/m2
03:04 27.0 °C 25.0 °C 1009.1 hPa Calm     90% 0.00 mm 0.00 W/m2
03:09 27.0 °C 25.0 °C 1008.8 hPa Calm     90% 0.00 mm 0.00 W/m2
03:14 27.0 °C 25.0 °C 1008.8 hPa Calm     90% 0.00 mm 0.00 W/m2
03:19 27.0 °C 25.0 °C 1008.8 hPa Calm     90% 0.00 mm 0.00 W/m2
03:24 27.0 °C 25.0 °C 1008.8 hPa Calm   4 km/h 90% 0.00 mm 0.00 W/m2
03:29 27.0 °C 25.0 °C 1008.8 hPa Calm   4 km/h 90% 0.00 mm 0.00 W/m2
03:34 27.0 °C 25.0 °C 1008.8 hPa Calm   4 km/h 90% 0.00 mm 0.00 W/m2
03:39 27.0 °C 25.0 °C 1008.8 hPa Calm     90% 0.00 mm 0.00 W/m2
03:44 27.0 °C 25.0 °C 1009.1 hPa Calm     90% 0.00 mm 0.00 W/m2
03:49 27.0 °C 25.0 °C 1008.8 hPa Calm   4 km/h 90% 0.00 mm 0.00 W/m2
03:54 27.0 °C 25.0 °C 1008.8 hPa Calm   4 km/h 90% 0.00 mm 0.00 W/m2
03:59 27.0 °C 25.0 °C 1008.8 hPa East 2 km/h 4 km/h 90% 0.00 mm 0.00 W/m2
04:04 27.0 °C 25.0 °C 1008.8 hPa East 3 km/h 4 km/h 90% 0.00 mm 0.00 W/m2
04:09 27.0 °C 25.0 °C 1008.8 hPa ESE 2 km/h 4 km/h 90% 0.00 mm 0.00 W/m2
04:14 27.0 °C 25.0 °C 1008.8 hPa East 1 km/h 4 km/h 90% 0.00 mm 0.00 W/m2
04:19 27.0 °C 25.0 °C 1008.8 hPa SSE 1 km/h 4 km/h 90% 0.00 mm 0.00 W/m2
04:24 27.0 °C 25.0 °C 1008.8 hPa SE 4 km/h 4 km/h 90% 0.00 mm 0.00 W/m2
04:29 27.0 °C 25.0 °C 1008.8 hPa SE 1 km/h 4 km/h 90% 0.00 mm 0.00 W/m2
04:34 27.0 °C 25.0 °C 1008.8 hPa Calm   4 km/h 90% 0.00 mm 0.00 W/m2
04:39 27.0 °C 25.0 °C 1008.8 hPa ESE 4 km/h 4 km/h 90% 0.00 mm 0.00 W/m2
04:44 27.0 °C 25.0 °C 1008.8 hPa ESE 3 km/h 4 km/h 90% 0.00 mm 0.00 W/m2
04:49 27.0 °C 25.0 °C 1008.8 hPa Calm     90% 0.00 mm 0.00 W/m2
04:54 27.0 °C 25.0 °C 1008.8 hPa ESE 3 km/h 4 km/h 90% 0.00 mm 0.00 W/m2
04:59 27.0 °C 25.0 °C 1008.5 hPa East 3 km/h 4 km/h 90% 0.00 mm 0.00 W/m2
05:04 27.0 °C 25.0 °C 1008.8 hPa East 4 km/h 8 km/h 90% 0.00 mm 0.00 W/m2
05:09 27.0 °C 25.0 °C 1008.8 hPa Calm     90% 0.00 mm 0.00 W/m2
05:19 27.0 °C 25.0 °C 1008.8 hPa ESE 2 km/h 4 km/h 90% 0.00 mm 0.00 W/m2
05:24 27.0 °C 25.0 °C 1008.8 hPa SE 5 km/h 8 km/h 90% 0.00 mm 0.00 W/m2
05:29 27.0 °C 25.0 °C 1008.8 hPa SE 3 km/h 4 km/h 89% 0.00 mm 0.29 W/m2
05:34 27.0 °C 25.0 °C 1009.1 hPa SE 5 km/h 8 km/h 89% 0.00 mm 3.61 W/m2
05:39 27.0 °C 25.0 °C 1009.1 hPa East 3 km/h 4 km/h 89% 0.00 mm 8.51 W/m2
05:44 27.0 °C 25.0 °C 1009.1 hPa SE 3 km/h 4 km/h 89% 0.00 mm 21.30 W/m2
05:49 27.0 °C 25.0 °C 1009.1 hPa SE 5 km/h 8 km/h 89% 0.00 mm 37.04 W/m2
05:54 28.0 °C 25.0 °C 1009.1 hPa SE 6 km/h 8 km/h 89% 0.00 mm 46.83 W/m2
05:59 28.0 °C 25.0 °C 1009.1 hPa Calm     88% 0.00 mm 46.45 W/m2
06:04 28.0 °C 26.0 °C 1009.1 hPa SE 5 km/h 8 km/h 88% 0.00 mm 46.30 W/m2
06:09 28.0 °C 25.0 °C 1009.5 hPa SE 6 km/h 8 km/h 88% 0.00 mm 51.85 W/m2
06:14 28.0 °C 26.0 °C 1009.1 hPa East 1 km/h 4 km/h 87% 0.00 mm 57.90 W/m2
06:19 28.0 °C 26.0 °C 1009.1 hPa East 2 km/h 4 km/h 87% 0.00 mm 62.51 W/m2
06:24 28.0 °C 26.0 °C 1009.1 hPa SE 3 km/h 4 km/h 86% 0.00 mm 186.24 W/m2
06:29 28.0 °C 26.0 °C 1009.1 hPa ESE 4 km/h 8 km/h 85% 0.00 mm 214.94 W/m2
06:39 30.0 °C 26.0 °C 1009.1 hPa SE 3 km/h 4 km/h 84% 0.00 mm 247.19 W/m2
06:44 30.0 °C 26.0 °C 1009.1 hPa SE 10 km/h 12 km/h 83% 0.00 mm 260.47 W/m2
06:49 30.0 °C 27.0 °C 1009.5 hPa SE 5 km/h 8 km/h 82% 0.00 mm 276.92 W/m2
06:54 31.0 °C 27.0 °C 1009.5 hPa SE 5 km/h 8 km/h 81% 0.00 mm 289.30 W/m2
06:59 30.0 °C 27.0 °C 1009.5 hPa SE 8 km/h 8 km/h 82% 0.00 mm 299.38 W/m2
07:04 31.0 °C 27.0 °C 1009.5 hPa ESE 6 km/h 8 km/h 81% 0.00 mm 312.98 W/m2
07:09 31.0 °C 27.0 °C 1009.5 hPa ESE 9 km/h 12 km/h 80% 0.00 mm 322.20 W/m2
07:14 31.0 °C 27.0 °C 1009.8 hPa East 6 km/h 8 km/h 80% 0.00 mm 335.07 W/m2
07:19 31.0 °C 27.0 °C 1009.8 hPa SE 9 km/h 12 km/h 79% 0.00 mm 342.59 W/m2
07:24 31.0 °C 27.0 °C 1009.8 hPa ESE 8 km/h 12 km/h 79% 0.00 mm 352.98 W/m2
07:29 31.0 °C 27.0 °C 1009.5 hPa ESE 10 km/h 12 km/h 79% 0.00 mm 363.77 W/m2
07:34 31.0 °C 27.0 °C 1009.8 hPa SE 15 km/h 20 km/h 80% 0.00 mm 375.13 W/m2
07:39 31.0 °C 27.0 °C 1009.5 hPa SE 10 km/h 12 km/h 80% 0.00 mm 386.09 W/m2
07:44 32.0 °C 27.0 °C 1009.8 hPa SE 10 km/h 12 km/h 78% 0.00 mm 395.12 W/m2
07:49 32.0 °C 27.0 °C 1009.8 hPa SE 12 km/h 12 km/h 78% 0.00 mm 407.91 W/m2
07:54 32.0 °C 27.0 °C 1009.5 hPa SE 6 km/h 8 km/h 77% 0.00 mm 417.80 W/m2
07:59 32.0 °C 27.0 °C 1009.5 hPa ESE 5 km/h 8 km/h 76% 0.00 mm 436.00 W/m2
08:03 32.0 °C 27.0 °C 1009.5 hPa SE 10 km/h 12 km/h 78% 0.00 mm 222.38 W/m2
08:09 32.0 °C 27.0 °C 1009.6 hPa NE 3 km/h 4 km/h 76% 0.00 mm 436.64 W/m2
08:14 33.0 °C 27.0 °C 1009.7 hPa ENE 2 km/h 4 km/h 74% 0.00 mm 466.22 W/m2
08:18 33.0 °C 28.0 °C 1009.7 hPa ESE 1 km/h 4 km/h 72% 0.00 mm 502.11 W/m2
08:24 34.0 °C 28.0 °C 1009.6 hPa SSE 5 km/h 8 km/h 71% 0.00 mm 531.64 W/m2
08:33 34.0 °C 27.0 °C 1009.3 hPa Calm   4 km/h 69% 0.00 mm 236.28 W/m2
08:51 33.0 °C 27.0 °C 1009.9 hPa SSE 1 km/h 4 km/h 72% 0.00 mm 485.47 W/m2
08:59 33.0 °C 27.0 °C 1009.9 hPa ESE 5 km/h 8 km/h 71% 0.00 mm 200.38 W/m2
09:04 33.0 °C 27.0 °C 1009.9 hPa SE 8 km/h 12 km/h 72% 0.00 mm 557.16 W/m2
09:09 33.0 °C 27.0 °C 1009.9 hPa SSE 5 km/h 8 km/h 71% 0.00 mm 586.40 W/m2
09:14 33.0 °C 27.0 °C 1009.9 hPa SE 8 km/h 12 km/h 70% 0.00 mm 641.06 W/m2
09:19 34.0 °C 27.0 °C 1009.9 hPa SE 10 km/h 12 km/h 69% 0.00 mm 655.03 W/m2
09:20 34.0 °C 27.0 °C 1009.8 hPa ESE 10 km/h 12 km/h 67% 0.00 mm 639.74 W/m2
09:27 33.0 °C 27.0 °C 1009.9 hPa ESE 5 km/h 8 km/h 68% 0.00 mm 226.24 W/m2
09:33 33.0 °C 26.0 °C 1010.1 hPa SSE 8 km/h 8 km/h 69% 0.00 mm 200.77 W/m2
09:35 33.0 °C 26.0 °C 1010.0 hPa SSE 4 km/h 4 km/h 70% 0.00 mm 205.50 W/m2
09:43 32.0 °C 26.0 °C 1010.1 hPa SSE 3 km/h 4 km/h 71% 0.00 mm 164.17 W/m2
09:46 32.0 °C 26.0 °C 1009.7 hPa SE 4 km/h 4 km/h 71% 0.00 mm 180.29 W/m2
09:58 32.0 °C 28.0 °C 1009.8 hPa NNE 13 km/h 16 km/h 79% 0.00 mm 219.66 W/m2
10:04 33.0 °C 28.0 °C 1009.9 hPa SW 5 km/h 8 km/h 79% 0.00 mm 641.28 W/m2
10:13 32.0 °C 28.0 °C 1009.7 hPa NW 4 km/h 4 km/h 79% 0.00 mm 188.74 W/m2
10:22 32.0 °C 28.0 °C 1009.7 hPa NW 1 km/h 4 km/h 78% 0.00 mm 193.12 W/m2
10:34 32.0 °C 28.0 °C 1009.8 hPa WNW 3 km/h 4 km/h 78% 0.00 mm 669.47 W/m2
10:39 33.0 °C 28.0 °C 1009.6 hPa WNW 10 km/h 12 km/h 78% 0.00 mm 674.31 W/m2
10:42 32.0 °C 28.0 °C 1009.6 hPa WNW 10 km/h 12 km/h 78% 0.00 mm 218.61 W/m2
10:49 33.0 °C 28.0 °C 1009.5 hPa NNW 9 km/h 12 km/h 76% 0.00 mm 734.13 W/m2
10:54 33.0 °C 28.0 °C 1009.4 hPa NW 14 km/h 16 km/h 78% 0.00 mm 628.22 W/m2
10:59 32.0 °C 28.0 °C 1009.4 hPa WNW 15 km/h 20 km/h 78% 0.00 mm 201.09 W/m2
11:00 32.0 °C 28.0 °C 1009.2 hPa NW 3 km/h 8 km/h 78% 0.00 mm 157.07 W/m2
11:07 32.0 °C 28.0 °C 1009.3 hPa WNW 1 km/h 4 km/h 79% 0.00 mm 139.48 W/m2
11:13 32.0 °C 28.0 °C 1009.2 hPa NW 14 km/h 20 km/h 77% 0.00 mm 718.62 W/m2
11:19 33.0 °C 28.0 °C 1009.1 hPa NW 17 km/h 24 km/h 78% 0.00 mm 757.04 W/m2
11:21 33.0 °C 28.0 °C 1008.9 hPa West 10 km/h 16 km/h 75% 0.00 mm 757.72 W/m2
11:29 34.0 °C 28.0 °C 1009.0 hPa SW 8 km/h 12 km/h 76% 0.00 mm 238.31 W/m2
11:34 33.0 °C 28.0 °C 1009.0 hPa WSW 10 km/h 16 km/h 76% 0.00 mm 272.05 W/m2
11:39 32.0 °C 28.0 °C 1009.0 hPa NW 20 km/h 24 km/h 80% 0.00 mm 209.12 W/m2
11:44 32.0 °C 28.0 °C 1008.7 hPa West 10 km/h 16 km/h 79% 0.00 mm 284.67 W/m2
11:55 32.0 °C 28.0 °C 1008.5 hPa SW 8 km/h 16 km/h 78% 0.00 mm 260.13 W/m2
12:03 32.0 °C 28.0 °C 1008.6 hPa Calm     77% 0.00 mm 211.22 W/m2
12:09 32.0 °C 28.0 °C 1008.6 hPa NW 20 km/h 24 km/h 79% 0.00 mm 231.46 W/m2
12:14 33.0 °C 28.0 °C 1008.7 hPa WNW 5 km/h 8 km/h 76% 0.00 mm 723.69 W/m2
12:18 34.0 °C 28.0 °C 1008.6 hPa WSW 7 km/h 12 km/h 73% 0.00 mm 746.78 W/m2
12:24 34.0 °C 28.0 °C 1008.4 hPa West 10 km/h 12 km/h 73% 0.00 mm 748.86 W/m2
12:29 33.0 °C 28.0 °C 1008.4 hPa NW 13 km/h 16 km/h 75% 0.00 mm 624.01 W/m2
12:32 33.0 °C 29.0 °C 1008.4 hPa WNW 8 km/h 12 km/h 76% 0.00 mm 548.65 W/m2
12:43 33.0 °C 28.0 °C 1007.9 hPa SSW 8 km/h 12 km/h 75% 0.00 mm 205.23 W/m2
12:49 33.0 °C 28.0 °C 1007.8 hPa WNW 10 km/h 12 km/h 75% 0.00 mm 652.88 W/m2
12:53 33.0 °C 28.0 °C 1008.0 hPa NW 14 km/h 16 km/h 75% 0.00 mm 677.86 W/m2
12:59 34.0 °C 28.0 °C 1007.9 hPa WSW 9 km/h 12 km/h 73% 0.00 mm 667.17 W/m2
13:09 35.0 °C 28.0 °C 1007.8 hPa WSW 5 km/h 12 km/h 71% 0.00 mm 675.29 W/m2
13:12 35.0 °C 28.0 °C 1007.6 hPa SSW 8 km/h 8 km/h 69% 0.00 mm 667.19 W/m2
13:18 35.0 °C 28.0 °C 1007.6 hPa NW 16 km/h 20 km/h 70% 0.00 mm 663.33 W/m2
13:24 34.0 °C 28.0 °C 1007.4 hPa NW 10 km/h 12 km/h 72% 0.00 mm 662.45 W/m2
13:29 35.0 °C 28.0 °C 1007.4 hPa NW 17 km/h 20 km/h 70% 0.00 mm 673.58 W/m2
13:31 34.0 °C 28.0 °C 1007.1 hPa North 13 km/h 16 km/h 70% 0.00 mm 670.13 W/m2
13:39 35.0 °C 28.0 °C 1007.1 hPa NW 12 km/h 12 km/h 69% 0.00 mm 681.63 W/m2
13:49 35.0 °C 28.0 °C 1007.0 hPa NNW 15 km/h 20 km/h 68% 0.00 mm 695.50 W/m2
13:51 35.0 °C 28.0 °C 1006.9 hPa West 15 km/h 20 km/h 70% 0.00 mm 240.46 W/m2
13:59 35.0 °C 28.0 °C 1006.8 hPa NW 15 km/h 20 km/h 69% 0.00 mm 663.28 W/m2
14:04 34.0 °C 28.0 °C 1006.8 hPa NW 28 km/h 32 km/h 71% 0.00 mm 674.21 W/m2
14:09 34.0 °C 28.0 °C 1006.8 hPa NW 26 km/h 28 km/h 71% 0.00 mm 674.21 W/m2
14:14 34.0 °C 29.0 °C 1006.8 hPa NNW 19 km/h 24 km/h 75% 0.00 mm 607.44 W/m2
14:19 33.0 °C 27.0 °C 1006.7 hPa NW 26 km/h 36 km/h 73% 0.00 mm 212.66 W/m2
14:20 33.0 °C 28.0 °C 1006.5 hPa NW 12 km/h 16 km/h 74% 0.00 mm 191.16 W/m2
14:33 33.0 °C 28.0 °C 1006.6 hPa NW 11 km/h 12 km/h 77% 1.80 mm 493.11 W/m2
14:39 33.0 °C 28.0 °C 1006.4 hPa WNW 6 km/h 8 km/h 76% 0.00 mm 244.35 W/m2
14:49 35.0 °C 28.0 °C 1006.4 hPa WSW 9 km/h 12 km/h 72% 0.00 mm 637.78 W/m2
14:52 35.0 °C 28.0 °C 1006.3 hPa WNW 9 km/h 12 km/h 68% 0.00 mm 631.37 W/m2
14:59 35.0 °C 28.0 °C 1006.4 hPa NW 15 km/h 20 km/h 69% 0.00 mm 642.06 W/m2
15:04 35.0 °C 28.0 °C 1006.5 hPa NW 14 km/h 16 km/h 68% 0.00 mm 666.53 W/m2
15:19 35.0 °C 28.0 °C 1006.3 hPa South 10 km/h 12 km/h 68% 0.00 mm 620.70 W/m2
15:23 35.0 °C 28.0 °C 1006.3 hPa SW 10 km/h 16 km/h 68% 0.00 mm 297.66 W/m2
15:29 35.0 °C 28.0 °C 1006.6 hPa WSW 9 km/h 12 km/h 69% 0.00 mm 301.31 W/m2
15:39 32.0 °C 27.0 °C 1006.6 hPa East 14 km/h 20 km/h 78% 10.80 mm 112.72 W/m2
15:44 29.0 °C 25.0 °C 1006.6 hPa ESE 11 km/h 16 km/h 78% 10.80 mm 103.22 W/m2
15:49 29.0 °C 25.0 °C 1006.7 hPa SSE 1 km/h 4 km/h 82% 7.19 mm 94.68 W/m2
15:54 29.0 °C 25.0 °C 1006.9 hPa SSE 6 km/h 8 km/h 82% 7.19 mm 88.35 W/m2
15:59 30.0 °C 25.0 °C 1006.9 hPa SSE 5 km/h 8 km/h 82% 3.61 mm 81.32 W/m2
16:00 30.0 °C 26.0 °C 1006.7 hPa Calm     79% 1.80 mm 72.76 W/m2
16:09 30.0 °C 26.0 °C 1006.3 hPa SE 5 km/h 8 km/h 80% 3.61 mm 64.73 W/m2
16:19 29.0 °C 26.0 °C 1007.0 hPa NNE 13 km/h 16 km/h 84% 7.19 mm 56.96 W/m2
16:22 29.0 °C 25.0 °C 1007.0 hPa NNE 9 km/h 12 km/h 83% 3.61 mm 54.04 W/m2
16:29 29.0 °C 26.0 °C 1006.8 hPa NW 5 km/h 8 km/h 85% 0.00 mm 45.98 W/m2
16:32 29.0 °C 26.0 °C 1006.7 hPa NW 3 km/h 4 km/h 83% 0.00 mm 41.28 W/m2
16:38 29.0 °C 26.0 °C 1007.8 hPa NNE 5 km/h 8 km/h 84% 1.80 mm 35.79 W/m2
16:44 29.0 °C 26.0 °C 1008.1 hPa NNE 15 km/h 20 km/h 85% 1.80 mm 25.60 W/m2
16:49 28.0 °C 26.0 °C 1007.9 hPa North 10 km/h 16 km/h 85% 1.80 mm 24.11 W/m2
16:53 28.0 °C 25.0 °C 1007.8 hPa NNE 12 km/h 16 km/h 84% 1.80 mm 24.17 W/m2
16:57 27.0 °C 25.0 °C 1007.6 hPa North 20 km/h 24 km/h 88% 1.80 mm 21.51 W/m2
17:03 27.0 °C 24.0 °C 1007.3 hPa NNW 14 km/h 20 km/h 88% 1.80 mm 19.03 W/m2
17:05 26.0 °C 24.0 °C 1007.5 hPa NW 13 km/h 16 km/h 87% 1.80 mm 18.47 W/m2
17:11 27.0 °C 24.0 °C 1007.2 hPa North 10 km/h 12 km/h 86% 1.80 mm 18.79 W/m2
17:16 26.0 °C 24.0 °C 1007.0 hPa North 6 km/h 8 km/h 86% 0.00 mm 19.79 W/m2
17:24 26.0 °C 24.0 °C 1007.3 hPa North 12 km/h 16 km/h 85% 0.00 mm 20.49 W/m2
17:29 27.0 °C 24.0 °C 1007.7 hPa North 10 km/h 12 km/h 84% 0.00 mm 22.09 W/m2
17:34 27.0 °C 24.0 °C 1007.6 hPa North 12 km/h 16 km/h 84% 0.00 mm 23.29 W/m2
17:39 27.0 °C 24.0 °C 1007.6 hPa North 12 km/h 16 km/h 84% 0.00 mm 24.14 W/m2
17:40 27.0 °C 24.0 °C 1007.3 hPa NNW 3 km/h 4 km/h 83% 0.00 mm 24.34 W/m2
17:47 27.0 °C 24.0 °C 1007.5 hPa North 4 km/h 4 km/h 83% 0.00 mm 27.70 W/m2
17:51 27.0 °C 24.0 °C 1008.0 hPa North 2 km/h 8 km/h 82% 0.00 mm 8.11 W/m2
17:59 27.0 °C 24.0 °C 1007.9 hPa NE 4 km/h 8 km/h 84% 0.00 mm 5.98 W/m2
18:03 27.0 °C 24.0 °C 1007.8 hPa NNE 8 km/h 8 km/h 83% 0.00 mm 4.12 W/m2
18:09 27.0 °C 24.0 °C 1008.2 hPa NNE 12 km/h 16 km/h 82% 0.00 mm 36.96 W/m2
18:14 27.0 °C 24.0 °C 1008.0 hPa NNE 15 km/h 20 km/h 83% 0.00 mm 30.56 W/m2
18:19 27.0 °C 24.0 °C 1007.8 hPa North 15 km/h 20 km/h 84% 0.00 mm 12.55 W/m2
18:24 27.0 °C 24.0 °C 1007.9 hPa NNE 20 km/h 28 km/h 84% 0.00 mm 0.00 W/m2
18:33 27.0 °C 24.0 °C 1007.8 hPa NE 6 km/h 8 km/h 86% 0.00 mm 0.00 W/m2
18:36 27.0 °C 24.0 °C 1007.6 hPa Calm     86% 0.00 mm 0.00 W/m2
18:44 27.0 °C 24.0 °C 1007.6 hPa SE 1 km/h 4 km/h 86% 0.00 mm 0.00 W/m2
18:49 27.0 °C 25.0 °C 1007.7 hPa East 4 km/h 4 km/h 86% 0.00 mm 0.00 W/m2
18:54 27.0 °C 24.0 °C 1007.7 hPa ESE 1 km/h 4 km/h 85% 0.00 mm 0.00 W/m2
18:59 27.0 °C 24.0 °C 1007.7 hPa SW 1 km/h 4 km/h 84% 0.00 mm 0.00 W/m2
19:04 27.0 °C 24.0 °C 1007.8 hPa ESE 4 km/h 8 km/h 85% 0.00 mm 0.00 W/m2
19:06 27.0 °C 24.0 °C 1007.8 hPa ESE 2 km/h 4 km/h 85% 0.00 mm 0.00 W/m2
19:14 27.0 °C 24.0 °C 1008.2 hPa NE 2 km/h 4 km/h 83% 0.00 mm 0.00 W/m2
19:19 27.0 °C 24.0 °C 1008.3 hPa ENE 4 km/h 4 km/h 83% 0.00 mm 0.00 W/m2
19:20 27.0 °C 24.0 °C 1008.3 hPa Calm     83% 0.00 mm 0.00 W/m2
19:35 27.0 °C 24.0 °C 1008.9 hPa East 3 km/h 4 km/h 83% 0.00 mm 0.00 W/m2
19:46 28.0 °C 24.0 °C 1008.6 hPa ENE 4 km/h 4 km/h 83% 0.00 mm 0.00 W/m2
19:59 28.0 °C 25.0 °C 1009.0 hPa ESE 6 km/h 8 km/h 83% 0.00 mm 0.00 W/m2
20:04 28.0 °C 25.0 °C 1009.3 hPa ESE 5 km/h 8 km/h 83% 0.00 mm 0.00 W/m2
20:19 28.0 °C 25.0 °C 1009.3 hPa Calm     83% 0.00 mm 0.00 W/m2
20:23 28.0 °C 25.0 °C 1009.5 hPa Calm     83% 0.00 mm 0.00 W/m2
20:39 28.0 °C 25.0 °C 1009.8 hPa Calm     82% 0.00 mm 0.00 W/m2
20:40 28.0 °C 25.0 °C 1009.8 hPa Calm   4 km/h 82% 0.00 mm 0.00 W/m2
20:49 28.0 °C 25.0 °C 1009.8 hPa ESE 1 km/h 4 km/h 83% 0.00 mm 0.00 W/m2
20:50 28.0 °C 25.0 °C 1009.6 hPa Calm     83% 0.00 mm 0.00 W/m2
21:05 28.0 °C 25.0 °C 1009.6 hPa Calm   4 km/h 83% 0.00 mm 0.00 W/m2
21:13 28.0 °C 26.0 °C 1009.5 hPa Calm     84% 0.00 mm 0.00 W/m2
21:19 28.0 °C 26.0 °C 1009.6 hPa East 1 km/h 4 km/h 84% 0.00 mm 0.00 W/m2
21:23 29.0 °C 26.0 °C 1009.8 hPa SE 4 km/h 4 km/h 84% 0.00 mm 0.00 W/m2
21:29 29.0 °C 26.0 °C 1009.9 hPa SE 3 km/h 4 km/h 84% 0.00 mm 0.00 W/m2
21:30 29.0 °C 26.0 °C 1009.9 hPa SE 1 km/h 4 km/h 84% 0.00 mm 0.00 W/m2
21:39 29.0 °C 26.0 °C 1010.1 hPa East 1 km/h 4 km/h 84% 0.00 mm 0.00 W/m2
21:44 29.0 °C 26.0 °C 1010.1 hPa Calm   4 km/h 84% 0.00 mm 0.00 W/m2
21:49 29.0 °C 26.0 °C 1010.0 hPa Calm   4 km/h 84% 0.00 mm 0.00 W/m2
21:54 29.0 °C 26.0 °C 1010.1 hPa SE 1 km/h 4 km/h 84% 0.00 mm 0.00 W/m2
21:59 29.0 °C 26.0 °C 1010.0 hPa SE 1 km/h 4 km/h 84% 0.00 mm 0.00 W/m2
22:04 29.0 °C 26.0 °C 1010.0 hPa ESE 1 km/h 4 km/h 84% 0.00 mm 0.00 W/m2
22:05 29.0 °C 26.0 °C 1009.9 hPa SE 6 km/h 8 km/h 84% 0.00 mm 0.00 W/m2
22:14 29.0 °C 26.0 °C 1009.9 hPa Calm     83% 0.00 mm 0.00 W/m2
22:19 29.0 °C 26.0 °C 1010.0 hPa Calm   4 km/h 83% 0.00 mm 0.00 W/m2
22:24 29.0 °C 26.0 °C 1010.3 hPa SE 1 km/h 4 km/h 83% 0.00 mm 0.00 W/m2
22:29 29.0 °C 26.0 °C 1010.1 hPa SE 1 km/h 4 km/h 83% 0.00 mm 0.00 W/m2
22:32 29.0 °C 26.0 °C 1010.1 hPa ESE 1 km/h 4 km/h 83% 0.00 mm 0.00 W/m2
22:47 29.0 °C 26.0 °C 1010.1 hPa Calm     84% 0.00 mm 0.00 W/m2
22:53 29.0 °C 26.0 °C 1010.2 hPa Calm     84% 0.00 mm 0.00 W/m2
22:59 29.0 °C 26.0 °C 1010.4 hPa NE 1 km/h 4 km/h 84% 0.00 mm 0.00 W/m2
23:03 29.0 °C 26.0 °C 1010.2 hPa NNE 4 km/h 4 km/h 85% 0.00 mm 0.00 W/m2
23:09 28.0 °C 26.0 °C 1010.0 hPa NNE 3 km/h 4 km/h 87% 0.00 mm 0.00 W/m2
23:10 28.0 °C 26.0 °C 1009.9 hPa NNE 5 km/h 8 km/h 87% 0.00 mm 0.00 W/m2
23:18 28.0 °C 26.0 °C 1010.2 hPa Calm   4 km/h 87% 0.00 mm 0.00 W/m2
23:37 28.0 °C 26.0 °C 1009.7 hPa Calm     87% 0.00 mm 0.00 W/m2
23:49 28.0 °C 26.0 °C 1010.0 hPa NNE 3 km/h 4 km/h 87% 0.00 mm 0.00 W/m2
23:54 28.0 °C 26.0 °C 1010.0 hPa Calm     87% 0.00 mm 0.00 W/m2
23:59 28.0 °C 26.0 °C 1010.0 hPa Calm     87% 0.00 mm 0.00 W/m2
PIMOHWEATHER Philippines
Compliments of Weather Underground - 2 mb